Wind_Speed
29 31 33 35 37 38 36 35 35 33 39 45 42 43 37 40 37 40 38 39 40 40 43 45 43 41 44 47 48 52 56 60 58 58 58 57 56 63 69 75 81 78 68 69
35 34 36 37 40 40 40 40 37 37 41 46 44 48 40 39 38 42 39 38 40 42 42 43 42 45 48 48 51 54 59 62 59 61 61 57 59 69 72 79 84 75 70 78
39 39 39 39 40 44 42 44 43 45 44 47 50 54 46 41 36 41 38 39 42 43 44 46 47 47 48 50 52 58 62 61 62 61 61 62 66 71 76 84 79 70 75 81
44 41 42 42 42 45 45 44 46 47 49 54 49 60 57 50 49 45 45 44 45 49 49 50 52 52 51 53 58 62 63 62 59 60 63 66 69 75 82 84 72 72 80 84
45 46 46 44 44 47 48 47 48 49 49 56 50 60 63 50 54 52 49 47 48 51 51 51 52 52 56 60 63 63 65 59 57 62 68 70 76 81 85 79 71 78 83 88
48 49 49 48 49 49 49 50 50 51 52 59 57 60 60 53 57 54 51 51 52 52 53 53 51 53 57 62 64 65 61 57 60 66 72 75 81 85 85 74 76 82 87 88
53 52 53 51 52 51 51 51 54 56 57 60 60 64 57 59 55 58 54 58 56 57 53 53 53 57 61 61 64 63 57 61 66 74 76 80 86 87 77 76 81 85 87 88
55 57 53 55 54 54 53 51 54 57 61 63 65 66 65 61 61 60 59 60 59 57 56 57 58 61 61 62 64 60 60 68 73 78 79 85 87 80 76 81 87 87 89 91
56 60 58 60 57 55 52 54 56 60 61 65 69 69 69 62 64 63 63 63 61 58 58 58 62 63 62 63 60 61 66 72 78 80 83 85 80 78 79 86 88 89 91 96
56 56 59 60 61 57 56 58 57 63 64 70 72 72 69 66 64 62 65 64 61 59 59 62 64 63 62 59 58 63 68 75 79 83 83 82 79 77 83 86 89 91 93 99
55 54 57 63 63 61 62 60 61 65 70 73 76 70 69 64 69 70 70 65 58 58 61 63 62 61 58 58 61 66 71 77 81 82 82 80 76 79 86 88 90 93 96 102
59 60 65 65 69 70 66 63 64 69 72 77 77 72 65 68 72 71 70 66 60 59 61 60 59 56 58 61 65 68 75 79 81 81 80 78 75 84 86 89 92 93 99 103
61 67 70 74 75 71 69 67 65 70 76 79 76 77 72 73 72 67 66 62 59 62 60 58 54 55 60 64 67 72 76 79 80 80 80 74 79 85 87 89 92 97 104 103
68 73 79 79 77 74 73 70 71 73 79 74 80 82 69 71 65 64 63 60 61 57 55 54 54 60 63 67 71 72 75 77 78 77 76 74 82 86 88 91 94 101 104 104
72 78 77 78 78 78 74 72 74 76 78 79 75 83 78 65 61 64 62 62 57 56 54 55 60 63 67 74 71 72 75 77 75 74 72 77 83 86 89 93 97 104 103 105
79 80 78 85 80 78 75 71 76 73 75 76 80 81 56 54 60 60 62 59 56 53 55 60 62 67 75 69 70 72 74 75 72 71 71 80 84 87 91 94 101 102 103 100
78 82 84 84 75 79 79 65 69 69 63 72 68 61 51 55 58 58 57 54 51 54 60 64 67 72 69 69 71 72 74 72 70 69 73 81 85 89 92 95 101 102 103 90
76 79 78 78 75 85 65 57 61 60 60 58 59 53 52 59 57 52 50 50 54 57 62 66 70 66 68 70 70 72 71 68 69 70 75 80 85 90 91 98 99 101 98 74
68 68 72 77 74 68 58 56 57 60 62 59 55 55 55 53 55 53 51 51 52 57 61 63 64 66 68 67 69 71 68 67 69 71 76 82 88 88 92 96 98 101 89 60
65 65 67 68 73 74 62 57 58 57 68 48 55 57 55 57 59 54 56 54 57 57 61 61 64 67 66 66 68 68 65 66 70 72 76 81 86 89 93 95 98 98 80 53
69 68 70 68 74 73 64 59 54 64 50 51 51 54 56 56 62 59 57 61 61 59 60 63 65 68 66 67 67 66 65 66 68 70 75 80 82 88 90 94 97 93 70 48
70 67 69 71 70 76 64 62 65 50 50 45 49 57 58 60 62 60 64 64 61 59 61 65 67 67 65 66 64 64 65 64 66 70 74 77 83 86 89 93 93 82 62 45
70 68 66 67 69 66 66 61 55 50 53 60 66 65 59 62 62 63 61 64 62 62 66 68 67 66 64 63 61 61 62 61 63 69 72 76 82 85 89 89 86 71 55 44
60 52 56 58 57 52 46 45 45 51 58 65 68 63 60 65 56 57 58 62 61 65 67 66 65 64 62 59 58 58 58 59 64 66 71 76 79 84 86 84 75 62 50 42
63 59 49 53 52 51 44 51 57 62 66 65 59 61 60 56 54 56 60 59 61 64 64 64 64 62 57 54 54 55 57 58 61 64 71 74 80 81 79 73 61 54 46 43
86 73 72 66 51 58 61 57 62 59 56 54 57 60 61 57 57 58 60 61 66 67 63 63 63 58 53 51 50 52 54 56 57 63 69 74 77 78 71 60 51 49 46 44
Wind_Direction
295 300 301 304 303 302 304 306 306 304 305 311 313 314 319 316 315 312 305 299 295 294 296 296 299 302 302 303 304 309 309 311 307 303 300 298 301 303 302 298 295 298 301 302
293 296 299 301 301 299 300 302 300 303 302 305 308 309 316 315 314 309 309 301 296 294 294 299 304 305 302 303 307 309 310 310 305 302 298 299 304 306 303 297 297 301 304 303
289 294 296 300 300 296 297 299 299 302 301 303 308 306 306 313 314 308 306 299 293 291 292 299 305 304 303 306 308 308 310 308 305 300 296 303 307 307 301 298 304 305 304 304
287 291 294 298 298 293 295 294 298 300 303 304 309 308 304 315 313 317 313 309 301 295 297 300 305 307 306 309 311 310 310 307 302 297 301 306 307 305 298 302 305 302 304 306
288 290 291 296 296 293 294 294 296 298 299 300 307 301 302 314 314 319 317 310 300 300 302 305 308 310 312 312 312 311 310 305 301 301 303 306 305 300 302 306 303 306 307 309
288 290 294 298 296 294 292 293 293 295 297 298 301 300 303 315 314 316 318 309 304 307 309 308 310 312 313 312 311 310 307 304 306 306 307 307 302 302 306 304 307 307 308 310
288 290 294 297 294 291 290 292 293 294 297 300 299 298 307 311 317 318 317 307 305 306 310 310 312 313 312 311 310 308 305 309 310 312 308 303 302 307 306 307 307 308 310 310
289 289 291 291 288 287 287 289 289 292 298 299 297 300 305 305 310 319 308 305 302 304 310 311 312 312 309 310 310 309 308 309 311 308 303 302 306 307 305 306 309 311 312 311
288 288 289 288 287 286 289 288 289 293 295 294 299 302 298 307 313 312 311 307 303 306 309 312 311 309 310 309 309 306 307 310 308 303 303 307 308 306 306 308 311 314 313 314
283 284 286 286 285 288 289 287 293 295 293 294 300 302 306 308 311 311 309 305 304 305 309 311 310 308 308 309 304 305 308 307 303 303 306 308 308 306 308 310 313 315 316 313
283 281 283 281 284 284 284 290 294 293 293 295 294 303 306 313 308 308 307 302 303 307 309 309 307 306 309 306 305 306 306 304 302 305 308 309 307 307 309 313 315 317 317 313
284 283 276 277 278 280 284 289 289 290 292 290 289 300 310 307 306 305 302 300 303 307 309 307 307 308 309 304 305 306 306 303 304 308 309 309 306 308 314 316 316 318 317 315
279 279 283 283 283 287 288 287 289 289 288 288 296 302 310 308 309 304 300 301 305 308 306 305 304 304 303 304 306 306 303 305 308 308 310 308 309 313 315 316 318 321 317 315
278 278 278 280 286 286 285 289 290 287 285 300 292 307 304 305 305 299 301 303 304 303 303 301 300 302 303 307 306 304 305 307 308 310 308 309 312 314 315 317 320 320 317 316
273 274 275 279 281 281 281 284 285 285 292 290 296 298 301 301 294 297 301 303 303 303 301 300 299 300 303 308 305 305 306 307 309 310 309 311 313 314 315 320 321 319 317 319
271 274 275 276 278 278 280 284 281 287 290 291 294 293 302 295 294 296 300 300 303 299 299 296 297 299 305 303 302 305 306 307 310 309 307 310 312 314 318 320 322 318 319 321
269 275 280 278 276 275 278 294 289 288 291 289 287 293 296 291 292 297 298 299 297 296 295 295 298 300 302 302 302 304 306 308 308 306 307 310 313 316 319 321 322 319 322 321
273 275 275 277 276 273 294 289 288 293 287 284 286 294 292 290 295 296 295 294 298 300 297 296 297 299 300 300 301 304 305 307 306 305 308 311 315 317 320 323 321 321 324 320
273 271 274 273 278 282 284 294 295 285 288 287 290 291 289 292 291 294 290 295 301 298 295 297 298 298 300 299 302 304 306 306 305 307 309 312 316 318 321 322 321 323 325 318
271 271 270 270 272 277 291 285 284 281 289 298 286 286 289 289 295 291 294 299 302 299 296 300 301 302 300 299 302 303 304 306 306 308 309 313 317 318 322 321 323 325 325 317
267 266 268 270 274 277 289 280 279 276 298 283 282 286 291 291 289 291 293 300 301 298 299 303 303 303 298 299 302 303 304 303 304 306 310 315 317 320 320 321 326 326 325 318
264 268 269 269 270 276 288 278 273 281 277 280 291 300 300 294 286 291 300 302 300 304 302 301 302 300 297 299 301 302 301 302 305 307 312 315 316 318 319 324 326 324 324 320
264 272 272 268 271 279 279 288 286 282 284 288 289 299 301 291 286 292 296 301 301 300 303 300 300 297 296 298 300 298 300 303 306 308 313 315 317 318 322 325 324 323 321 319
262 265 267 267 275 279 278 279 288 291 287 286 290 297 297 293 288 293 299 301 299 300 301 299 298 294 294 296 296 297 300 304 305 310 311 315 317 321 325 324 322 323 319 317
270 264 267 270 267 277 280 286 288 289 289 284 287 290 291 286 289 292 296 298 300 302 298 296 294 291 292 293 295 298 302 304 307 310 312 315 319 325 326 323 322 322 319 318
269 275 270 269 275 276 283 289 289 294 283 285 284 287 288 288 290 291 294 295 298 298 294 293 290 289 289 293 297 300 303 305 310 311 315 318 323 326 324 323 325 323 318 320
Height
5832 5829 5825 5822 5820 5817 5813 5810 5806 5804 5797 5790 5789 5785 5789 5782 5779 5774 5769 5765 5761 5757 5752 5747 5745 5741 5737 5732 5727 5723 5717 5711 5704 5696 5688 5680 5673 5664 5654 5643 5632 5623 5617 5614
5825 5822 5819 5816 5813 5809 5806 5802 5800 5796 5790 5784 5783 5775 5780 5776 5771 5764 5761 5756 5751 5745 5740 5736 5734 5730 5725 5720 5715 5709 5701 5694 5686 5679 5672 5665 5659 5649 5637 5624 5615 5606 5599 5594
5816 5815 5812 5809 5806 5800 5799 5794 5790 5785 5780 5777 5772 5760 5769 5771 5766 5758 5753 5747 5740 5734 5729 5725 5722 5717 5712 5707 5700 5693 5686 5680 5673 5665 5657 5650 5640 5629 5618 5606 5597 5589 5584 5574
5807 5807 5803 5800 5797 5791 5789 5787 5781 5775 5769 5761 5766 5743 5740 5756 5750 5747 5741 5736 5729 5722 5718 5714 5711 5706 5700 5693 5687 5680 5672 5665 5657 5649 5641 5632 5622 5612 5599 5591 5583 5574 5561 5551
5800 5795 5793 5791 5787 5782 5779 5775 5771 5767 5761 5752 5758 5744 5732 5745 5736 5735 5731 5723 5716 5710 5706 5702 5697 5692 5687 5680 5673 5665 5656 5648 5641 5633 5623 5613 5601 5588 5578 5570 5563 5554 5544 5532
5789 5784 5782 5780 5775 5771 5767 5764 5759 5755 5752 5742 5743 5734 5722 5732 5725 5723 5719 5711 5704 5698 5694 5689 5684 5676 5670 5663 5657 5650 5641 5634 5625 5614 5602 5591 5579 5566 5559 5550 5544 5535 5525 5512
5776 5774 5771 5768 5764 5760 5757 5752 5745 5742 5738 5733 5727 5717 5717 5717 5714 5711 5705 5696 5690 5684 5680 5674 5668 5662 5655 5648 5641 5633 5625 5617 5607 5596 5583 5570 5558 5546 5539 5532 5524 5514 5503 5490
5764 5762 5762 5759 5754 5750 5746 5744 5737 5729 5726 5719 5712 5704 5704 5704 5700 5698 5690 5682 5676 5670 5666 5660 5654 5648 5640 5632 5625 5617 5609 5599 5588 5577 5566 5552 5540 5530 5521 5512 5503 5492 5479 5468
5751 5749 5747 5741 5740 5738 5738 5732 5725 5717 5716 5707 5701 5695 5687 5695 5689 5683 5674 5666 5660 5658 5652 5646 5639 5631 5624 5617 5609 5603 5594 5584 5572 5561 5548 5533 5524 5514 5505 5494 5481 5471 5458 5445
5738 5734 5733 5728 5723 5723 5721 5718 5715 5704 5696 5689 5685 5677 5672 5678 5673 5667 5660 5653 5648 5643 5638 5631 5623 5617 5610 5602 5595 5588 5579 5568 5555 5541 5530 5519 5509 5499 5488 5477 5465 5452 5438 5422
5723 5721 5723 5713 5711 5709 5705 5705 5701 5692 5681 5672 5666 5665 5665 5667 5655 5652 5646 5638 5635 5630 5624 5617 5609 5602 5595 5588 5581 5572 5562 5549 5537 5527 5515 5503 5493 5483 5473 5460 5446 5432 5418 5400
5705 5701 5699 5699 5692 5690 5693 5694 5688 5677 5672 5655 5644 5650 5658 5651 5641 5635 5627 5622 5620 5616 5609 5602 5595 5588 5582 5574 5566 5556 5545 5533 5522 5511 5501 5490 5478 5466 5453 5441 5427 5413 5399 5380
5690 5680 5676 5674 5673 5676 5675 5676 5674 5664 5649 5640 5636 5624 5636 5628 5623 5618 5611 5608 5604 5599 5593 5587 5581 5575 5568 5560 5550 5538 5528 5518 5507 5496 5485 5474 5463 5451 5439 5426 5411 5395 5377 5358
5671 5664 5658 5660 5662 5658 5655 5660 5654 5644 5627 5633 5614 5611 5621 5617 5607 5600 5596 5595 5591 5585 5579 5573 5567 5561 5553 5544 5534 5522 5511 5501 5491 5480 5470 5460 5449 5437 5424 5411 5395 5378 5358 5337
5650 5643 5642 5646 5646 5637 5640 5644 5636 5626 5625 5612 5611 5601 5601 5602 5593 5587 5585 5580 5576 5571 5564 5559 5552 5545 5537 5527 5516 5505 5495 5486 5475 5467 5457 5446 5433 5421 5409 5394 5378 5359 5339 5318
5628 5624 5625 5623 5625 5619 5617 5623 5617 5617 5611 5599 5595 5582 5597 5585 5577 5573 5571 5566 5562 5556 5550 5544 5537 5529 5520 5509 5499 5489 5479 5471 5462 5452 5443 5431 5420 5406 5393 5378 5361 5340 5322 5299
5613 5609 5606 5598 5607 5595 5598 5612 5605 5603 5597 5585 5576 5578 5580 5571 5563 5561 5557 5551 5545 5539 5533 5527 5521 5513 5503 5494 5485 5476 5466 5456 5447 5437 5428 5418 5406 5391 5377 5362 5343 5321 5304 5281
5594 5591 5584 5579 5583 5565 5589 5591 5585 5584 5579 5570 5563 5565 5559 5551 5552 5547 5542 5536 5531 5527 5520 5512 5505 5497 5488 5478 5470 5460 5451 5442 5434 5424 5415 5404 5392 5377 5362 5346 5326 5306 5287 5266
5576 5572 5562 5555 5556 5556 5573 5579 5571 5560 5563 5561 5552 5548 5541 5537 5535 5536 5527 5523 5518 5511 5503 5496 5488 5480 5472 5463 5453 5446 5437 5428 5420 5411 5401 5389 5377 5362 5347 5330 5311 5290 5271 5254
5558 5555 5548 5543 5531 5532 5560 5561 5554 5544 5539 5558 5537 5533 5529 5522 5519 5518 5512 5508 5501 5495 5487 5479 5472 5464 5455 5447 5438 5431 5422 5415 5407 5397 5385 5373 5362 5347 5332 5313 5295 5274 5256 5242
5538 5536 5530 5527 5513 5511 5550 5539 5534 5526 5537 5529 5524 5518 5514 5509 5503 5499 5494 5491 5485 5477 5471 5464 5456 5447 5439 5431 5424 5417 5409 5401 5392 5381 5371 5359 5346 5331 5312 5297 5278 5260 5245 5232
5518 5516 5515 5512 5502 5498 5527 5520 5511 5519 5512 5511 5508 5504 5498 5492 5487 5482 5478 5473 5468 5460 5453 5446 5439 5431 5424 5417 5409 5403 5396 5387 5378 5368 5357 5345 5331 5314 5295 5281 5266 5245 5233 5225
5488 5500 5498 5493 5490 5502 5500 5503 5501 5500 5499 5492 5488 5485 5482 5476 5470 5465 5462 5457 5450 5444 5438 5431 5423 5415 5408 5402 5396 5389 5382 5374 5364 5353 5343 5332 5318 5302 5282 5266 5252 5236 5224 5217
5477 5480 5477 5475 5488 5489 5489 5488 5489 5486 5481 5474 5471 5468 5464 5458 5452 5448 5445 5439 5433 5427 5421 5415 5408 5401 5393 5387 5382 5376 5369 5361 5350 5342 5331 5320 5307 5291 5270 5251 5236 5224 5216 5210
5463 5462 5466 5462 5471 5474 5478 5476 5473 5467 5462 5457 5452 5448 5446 5441 5435 5430 5427 5422 5417 5411 5404 5398 5391 5384 5378 5373 5369 5362 5355 5347 5338 5328 5317 5307 5294 5279 5259 5237 5226 5218 5208 5200
5439 5451 5448 5448 5461 5454 5460 5456 5452 5451 5446 5441 5436 5432 5429 5426 5420 5413 5409 5404 5399 5393 5388 5381 5375 5368 5364 5360 5355 5350 5342 5334 5325 5315 5305 5294 5282 5265 5248 5234 5222 5210 5202 5196